| time (UTC) | temp F | wind direction | speed knots | gust knots | rain 1hr in | rain 24hr in | rain mn in | humidity % | barometer mb |
| 20260506124752 | 60 | 0 | 2.6 | 8.7 | 0.00 | 0.00 | 0.00 | 53 | 1008.5 |
| 20260506123753 | 61 | 17 | 1.7 | 7.8 | 0.00 | 0.00 | 0.00 | 56 | 1008.4 |
| 20260506123254 | 60 | 36 | 4.3 | 10.4 | 0.00 | 0.00 | 0.00 | 54 | 1008.4 |
| 20260506121252 | 62 | 45 | 3.5 | 11.3 | 0.00 | 0.00 | 0.00 | 51 | 1008.3 |
| 20260506120753 | 62 | 40 | 4.3 | 12.2 | 0.00 | 0.00 | 0.00 | 56 | 1008.3 |
| 20260506120252 | 61 | 17 | 4.3 | 11.3 | 0.00 | 0.00 | 0.00 | 54 | 1008.3 |
| 20260506114253 | 61 | 34 | 5.2 | 12.2 | 0.00 | 0.00 | 0.00 | 53 | 1008.5 |
| 20260506111753 | 60 | 38 | 4.3 | 12.2 | 0.00 | 0.00 | 0.00 | 53 | 1008.6 |
| 20260506111253 | 59 | 30 | 2.6 | 7.8 | 0.00 | 0.00 | 0.00 | 54 | 1008.6 |
| 20260506110753 | 59 | 46 | 4.3 | 11.3 | 0.00 | 0.00 | 0.00 | 55 | 1008.6 |
| 20260506110253 | 60 | 51 | 5.2 | 13.0 | 0.00 | 0.00 | 0.00 | 52 | 1008.7 |
| 20260506104753 | 61 | 43 | 5.2 | 11.3 | 0.00 | 0.00 | 0.00 | 52 | 1008.7 |
| 20260506104253 | 61 | 30 | 2.6 | 12.2 | 0.00 | 0.00 | 0.00 | 56 | 1008.8 |
| 20260506103753 | 60 | 21 | 7.0 | 13.0 | 0.00 | 0.00 | 0.00 | 52 | 1008.8 |
| 20260506101254 | 59 | 46 | 4.3 | 13.9 | 0.00 | 0.00 | 0.00 | 54 | 1008.9 |
| 20260506100753 | 58 | 43 | 5.2 | 13.0 | 0.00 | 0.00 | 0.00 | 53 | 1009.0 |
| 20260506100253 | 58 | 16 | 4.3 | 12.2 | 0.00 | 0.00 | 0.00 | 56 | 1009.0 |
| 20260506094753 | 58 | 32 | 3.5 | 11.3 | 0.00 | 0.00 | 0.00 | 56 | 1009.0 |
| 20260506094253 | 57 | 21 | 4.3 | 11.3 | 0.00 | 0.00 | 0.00 | 55 | 1009.0 |
| 20260506093253 | 57 | 41 | 4.3 | 13.9 | 0.00 | 0.00 | 0.00 | 55 | 1009.0 |
| 20260506091754 | 57 | 18 | 4.3 | 13.9 | 0.00 | 0.00 | 0.00 | 58 | 1009.1 |
| 20260506091253 | 56 | 32 | 6.1 | 13.9 | 0.00 | 0.00 | 0.00 | 56 | 1009.0 |
| 20260506090253 | 57 | 14 | 5.2 | 13.0 | 0.00 | 0.00 | 0.00 | 59 | 1009.0 |
| 20260506084753 | 57 | 11 | 6.1 | 10.4 | 0.00 | 0.00 | 0.00 | 56 | 1009.0 |
| 20260506084253 | 57 | 38 | 4.3 | 13.0 | 0.00 | 0.00 | 0.00 | 57 | 1009.0 |
| 20260506083753 | 57 | 35 | 5.2 | 12.2 | 0.00 | 0.00 | 0.00 | 56 | 1009.0 |
| 20260506083253 | 57 | 56 | 3.5 | 10.4 | 0.00 | 0.00 | 0.00 | 58 | 1009.0 |
| 20260506081754 | 56 | 27 | 4.3 | 8.7 | 0.00 | 0.00 | 0.00 | 56 | 1008.9 |
| 20260506081254 | 56 | 27 | 4.3 | 12.2 | 0.00 | 0.00 | 0.00 | 57 | 1008.9 |
| 20260506080753 | 56 | 37 | 5.2 | 10.4 | 0.00 | 0.00 | 0.00 | 56 | 1008.9 |
| 20260506080254 | 55 | 34 | 4.3 | 13.0 | 0.00 | 0.00 | 0.00 | 55 | 1008.9 |
| 20260506073253 | 54 | 39 | 4.3 | 10.4 | 0.00 | 0.00 | 0.00 | 58 | 1009.0 |
| 20260506071753 | 54 | 27 | 3.5 | 8.7 | 0.00 | 0.00 | 0.00 | 60 | 1008.9 |
| 20260506071254 | 53 | 40 | 3.5 | 11.3 | 0.00 | 0.00 | 0.00 | 62 | 1008.9 |
| 20260506070754 | 53 | 24 | 3.5 | 7.8 | 0.00 | 0.00 | 0.00 | 61 | 1008.9 |
| 20260506070254 | 53 | 57 | 2.6 | 12.2 | 0.00 | 0.00 | 0.00 | 62 | 1009.0 |
| 20260506061754 | 51 | 29 | 5.2 | 12.2 | 0.00 | 0.00 | 0.00 | 69 | 1008.8 |
| 20260506061254 | 50 | 39 | 4.3 | 8.7 | 0.00 | 0.00 | 0.00 | 74 | 1008.8 |
| 20260506060754 | 50 | 11 | 5.2 | 12.2 | 0.00 | 0.00 | 0.00 | 76 | 1008.8 |
| 20260506060254 | 49 | 2 | 2.6 | 13.0 | 0.00 | 0.00 | 0.00 | 78 | 1008.8 |
| 20260506050754 | 45 | 30 | 4.3 | 8.7 | 0.00 | 0.00 | 0.00 | 87 | 1008.8 |
| 20260506050254 | 45 | 27 | 3.5 | 11.3 | 0.00 | 0.00 | 0.00 | 87 | 1008.8 |
| 20260506044754 | 44 | 32 | 2.6 | 10.4 | 0.00 | 0.00 | 0.00 | 88 | 1008.9 |
| 20260506044254 | 44 | 44 | 1.7 | 6.1 | 0.00 | 0.00 | 0.00 | 88 | 1008.9 |
| 20260506043754 | 44 | 44 | 4.3 | 7.0 | 0.00 | 0.00 | 0.00 | 88 | 1008.8 |
| 20260506043254 | 44 | 30 | 3.5 | 7.8 | 0.00 | 0.00 | 0.00 | 88 | 1008.9 |
| 20260506041754 | 43 | 33 | 1.7 | 4.3 | 0.00 | 0.00 | 0.00 | 88 | 1008.9 |
| 20260506041254 | 43 | 30 | 0.9 | 4.3 | 0.00 | 0.00 | 0.00 | 88 | 1008.9 |
| 20260506040754 | 43 | 33 | 0.9 | 5.2 | 0.00 | 0.00 | 0.00 | 88 | 1008.9 |
| 20260506040254 | 43 | 18 | 0.9 | 7.0 | 0.00 | 0.00 | 0.00 | 88 | 1008.9 |
| 20260506034754 | 43 | 14 | 1.7 | 5.2 | 0.00 | 0.00 | 0.00 | 88 | 1008.9 |
| 20260506034254 | 43 | 27 | 0.9 | 4.3 | 0.00 | 0.00 | 0.00 | 89 | 1009.0 |
| 20260506033754 | 43 | 22 | 1.7 | 5.2 | 0.00 | 0.00 | 0.00 | 89 | 1008.9 |
| 20260506033255 | 43 | 17 | 1.7 | 6.1 | 0.00 | 0.00 | 0.00 | 89 | 1009.0 |
| 20260506031254 | 43 | 32 | 0.9 | 5.2 | 0.00 | 0.00 | 0.00 | 89 | 1009.0 |
| 20260506030754 | 43 | 35 | 1.7 | 5.2 | 0.00 | 0.00 | 0.00 | 89 | 1009.0 |
| 20260506030254 | 43 | 46 | 1.7 | 5.2 | 0.00 | 0.00 | 0.00 | 89 | 1009.0 |
| 20260506024754 | 43 | 19 | 1.7 | 5.2 | 0.00 | 0.00 | 0.00 | 89 | 1009.1 |
| 20260506024254 | 43 | 14 | 1.7 | 5.2 | 0.00 | 0.00 | 0.00 | 89 | 1009.1 |
| 20260506021755 | 43 | 26 | 0.0 | 0.9 | 0.00 | 0.00 | 0.00 | 90 | 1009.2 |
| 20260506021255 | 43 | 25 | 1.7 | 4.3 | 0.00 | 0.00 | 0.00 | 90 | 1009.3 |
| 20260506020754 | 43 | 24 | 1.7 | 4.3 | 0.00 | 0.00 | 0.00 | 90 | 1009.3 |
| 20260506020254 | 43 | 14 | 0.9 | 4.3 | 0.00 | 0.00 | 0.00 | 90 | 1009.3 |
| 20260506014255 | 43 | 28 | 0.9 | 2.6 | 0.00 | 0.00 | 0.00 | 90 | 1009.3 |
| 20260506013755 | 43 | 26 | 0.9 | 4.3 | 0.00 | 0.00 | 0.00 | 90 | 1009.3 |
| 20260506013255 | 43 | 25 | 1.7 | 4.3 | 0.00 | 0.00 | 0.00 | 91 | 1009.3 |
| 20260506011755 | 43 | 24 | 0.9 | 1.7 | 0.00 | 0.00 | 0.00 | 91 | 1009.4 |
| 20260506011255 | 43 | 24 | 0.9 | 1.7 | 0.00 | 0.00 | 0.00 | 91 | 1009.4 |
| 20260506010755 | 43 | 27 | 0.9 | 1.7 | 0.00 | 0.00 | 0.00 | 90 | 1009.4 |
| 20260506010255 | 43 | 28 | 0.0 | 5.2 | 0.00 | 0.00 | 0.00 | 90 | 1009.4 |
| 20260506004255 | 43 | 29 | 0.9 | 1.7 | 0.00 | 0.00 | 0.00 | 90 | 1009.5 |
| 20260506001755 | 44 | 34 | 0.9 | 2.6 | 0.00 | 0.00 | 0.00 | 91 | 1009.4 |
| 20260506001255 | 44 | 32 | 0.0 | 2.6 | 0.00 | 0.00 | 0.00 | 91 | 1009.3 |
| 20260506000755 | 44 | 31 | 0.9 | 2.6 | 0.00 | 0.00 | 0.00 | 91 | 1009.3 |
| 20260506000255 | 44 | 30 | 0.9 | 5.2 | 0.00 | 0.00 | 0.00 | 91 | 1009.4 |
| 20260505234755 | 44 | 24 | 0.9 | 5.2 | 0.00 | 0.00 | 0.00 | 91 | 1009.5 |
| 20260505234255 | 44 | 23 | 0.9 | 2.6 | 0.00 | 0.00 | 0.00 | 90 | 1009.5 |
| 20260505233755 | 44 | 31 | 0.9 | 1.7 | 0.00 | 0.00 | 0.00 | 91 | 1009.5 |
| 20260505233255 | 44 | 32 | 0.9 | 4.3 | 0.00 | 0.00 | 0.00 | 90 | 1009.5 |
| 20260505231755 | 45 | 30 | 0.9 | 5.2 | 0.00 | 0.00 | 0.00 | 90 | 1009.5 |
| 20260505231256 | 45 | 32 | 0.9 | 4.3 | 0.00 | 0.00 | 0.00 | 90 | 1009.5 |
| 20260505230255 | 45 | 30 | 0.9 | 5.2 | 0.00 | 0.00 | 0.00 | 91 | 1009.4 |
| 20260505224755 | 45 | 35 | 0.0 | 2.6 | 0.00 | 0.00 | 0.00 | 90 | 1009.5 |
| 20260505224255 | 45 | 33 | 0.9 | 1.7 | 0.00 | 0.00 | 0.00 | 90 | 1009.5 |
| 20260505223755 | 45 | 33 | 0.0 | 1.7 | 0.00 | 0.00 | 0.00 | 90 | 1009.5 |
| 20260505223255 | 45 | 33 | 0.0 | 2.6 | 0.00 | 0.00 | 0.00 | 89 | 1009.5 |
| 20260505221255 | 45 | 34 | 0.0 | 0.9 | 0.00 | 0.00 | 0.00 | 89 | 1009.6 |
| 20260505220756 | 45 | 34 | 0.0 | 0.0 | 0.00 | 0.00 | 0.00 | 88 | 1009.6 |
| 20260505220256 | 45 | 34 | 0.0 | 4.3 | 0.00 | 0.00 | 0.00 | 88 | 1009.6 |
| 20260505214756 | 45 | 34 | 0.0 | 0.0 | 0.00 | 0.00 | 0.00 | 88 | 1009.7 |
| 20260505214256 | 46 | 34 | 0.0 | 2.6 | 0.00 | 0.00 | 0.00 | 88 | 1009.8 |
| 20260505213756 | 46 | 32 | 0.0 | 2.6 | 0.00 | 0.00 | 0.00 | 88 | 1009.8 |
| 20260505211756 | 46 | 36 | 0.9 | 4.3 | 0.00 | 0.00 | 0.00 | 86 | 1009.9 |
| 20260505211256 | 46 | 35 | 0.9 | 1.7 | 0.00 | 0.00 | 0.00 | 86 | 1009.9 |
| 20260505210756 | 46 | 38 | 0.9 | 4.3 | 0.00 | 0.00 | 0.00 | 85 | 1009.9 |
| 20260505210256 | 46 | 113 | 0.0 | 0.0 | 0.00 | 0.00 | 0.00 | 85 | 1009.9 |
| 20260505204755 | 47 | 114 | 0.0 | 0.0 | 0.00 | 0.00 | 0.00 | 83 | 1009.9 |
| 20260505204256 | 47 | 115 | 0.0 | 0.0 | 0.00 | 0.00 | 0.00 | 83 | 1010.0 |
| 20260505203755 | 47 | 115 | 0.0 | 0.0 | 0.00 | 0.00 | 0.00 | 83 | 1009.9 |
| 20260505203256 | 48 | 115 | 0.0 | 2.6 | 0.00 | 0.00 | 0.00 | 83 | 1010.0 |
| 20260505201755 | 48 | 115 | 1.7 | 6.1 | 0.00 | 0.00 | 0.00 | 83 | 1009.9 |
| 20260505201255 | 48 | 100 | 0.9 | 2.6 | 0.00 | 0.00 | 0.00 | 83 | 1009.9 |
| 20260505194756 | 48 | 106 | 0.9 | 4.3 | 0.00 | 0.00 | 0.00 | 82 | 1009.8 |
| 20260505194256 | 48 | 98 | 0.9 | 6.1 | 0.00 | 0.00 | 0.00 | 81 | 1009.8 |
| 20260505193756 | 48 | 96 | 1.7 | 6.1 | 0.00 | 0.00 | 0.00 | 81 | 1009.8 |
| 20260505191756 | 49 | 58 | 1.7 | 6.1 | 0.00 | 0.00 | 0.00 | 78 | 1009.6 |
| 20260505191256 | 49 | 88 | 0.0 | 4.3 | 0.00 | 0.00 | 0.00 | 77 | 1009.5 |
| 20260505190256 | 50 | 40 | 1.7 | 6.1 | 0.00 | 0.00 | 0.00 | 75 | 1009.4 |
| 20260505184756 | 51 | 89 | 1.7 | 7.0 | 0.00 | 0.00 | 0.00 | 73 | 1009.4 |
| 20260505184256 | 51 | 27 | 1.7 | 5.2 | 0.00 | 0.00 | 0.00 | 73 | 1009.4 |
| 20260505183756 | 51 | 32 | 2.6 | 7.8 | 0.00 | 0.00 | 0.00 | 73 | 1009.4 |
| 20260505183256 | 51 | 50 | 3.5 | 10.4 | 0.00 | 0.00 | 0.00 | 72 | 1009.3 |
| 20260505181756 | 52 | 42 | 1.7 | 6.1 | 0.00 | 0.00 | 0.00 | 72 | 1009.4 |
| 20260505181256 | 52 | 21 | 2.6 | 7.0 | 0.00 | 0.00 | 0.00 | 72 | 1009.4 |
| 20260505180756 | 52 | 32 | 1.7 | 6.1 | 0.00 | 0.00 | 0.00 | 72 | 1009.4 |
| 20260505174756 | 53 | 34 | 1.7 | 6.1 | 0.00 | 0.00 | 0.00 | 72 | 1009.4 |
| 20260505174256 | 53 | 34 | 2.6 | 6.1 | 0.00 | 0.00 | 0.00 | 71 | 1009.4 |
| 20260505173756 | 53 | 21 | 1.7 | 5.2 | 0.00 | 0.00 | 0.00 | 71 | 1009.4 |
| 20260505173256 | 53 | 22 | 2.6 | 6.1 | 0.00 | 0.00 | 0.00 | 70 | 1009.4 |
| 20260505171757 | 54 | 22 | 1.7 | 7.8 | 0.00 | 0.00 | 0.00 | 69 | 1009.5 |
| 20260505171256 | 54 | 43 | 1.7 | 5.2 | 0.00 | 0.00 | 0.00 | 68 | 1009.4 |
| 20260505170756 | 55 | 29 | 0.9 | 2.6 | 0.00 | 0.00 | 0.00 | 68 | 1009.4 |
| 20260505170257 | 55 | 32 | 0.9 | 6.1 | 0.00 | 0.00 | 0.00 | 66 | 1009.5 |
| 20260505164757 | 57 | 72 | 1.7 | 4.3 | 0.00 | 0.00 | 0.00 | 65 | 1009.4 |
| 20260505164256 | 58 | 48 | 0.9 | 4.3 | 0.00 | 0.00 | 0.00 | 61 | 1009.5 |
| 20260505163756 | 59 | 50 | 0.9 | 2.6 | 0.00 | 0.00 | 0.00 | 61 | 1009.5 |
| 20260505163256 | 60 | 43 | 0.9 | 7.0 | 0.00 | 0.00 | 0.00 | 59 | 1009.6 |
| 20260505161756 | 61 | 43 | 1.7 | 4.3 | 0.00 | 0.00 | 0.00 | 60 | 1009.6 |
| 20260505161256 | 61 | 48 | 1.7 | 7.0 | 0.00 | 0.00 | 0.00 | 57 | 1009.6 |
| 20260505160756 | 62 | 28 | 1.7 | 5.2 | 0.00 | 0.00 | 0.00 | 57 | 1009.6 |
| 20260505151257 | 59 | 101 | 1.7 | 4.3 | 0.00 | 0.00 | 0.00 | 65 | 1009.9 |
| 20260505150757 | 60 | 89 | 4.3 | 7.8 | 0.00 | 0.00 | 0.00 | 65 | 1010.0 |
| 20260505150257 | 59 | 88 | 3.5 | 8.7 | 0.00 | 0.00 | 0.00 | 67 | 1009.9 |
| 20260505130257 | 59 | 42 | 1.7 | 7.8 | 0.00 | 0.00 | 0.00 | 66 | 1010.2 |